Regional Weather Roundup
Issued by NWS Jackson, KY

Home | Current Version | Previous Version | Text Only | Print | Product List | Glossary On
Versions: 1 2 3 4 5 6 7 8 9 10 11 12 13 14 15 16 17 18 19 20 21 22 23 24 25 26 27
000
ASUS43 KJKL 250710
RWRJKL

EAST KENTUCKY HOURLY WEATHER ROUNDUP
NATIONAL WEATHER SERVICE JACKSON KY
300 AM EDT WED APR 25 2018

NOTE: "FAIR" INDICATES FEW OR NO CLOUDS BELOW 12,000 FEET WITH
NO SIGNIFICANT WEATHER AND/OR OBSTRUCTIONS TO VISIBILITY.

* THESE REPORTS ARE NOT UNDER NWS QUALITY CONTROL AND MAY NOT
  REPORT WEATHER SUCH AS PRECIPITATION AND FOG.

KYZ079-080-083-085-087-088-110-112-115-119-120-250800
...EASTERN KENTUCKY...

CITY           SKY/WX    TMP DP  RH WIND       PRES   REMARKS
JACKSON        CLOUDY    54  51  90 NW6       29.86F
LONDON         CLOUDY    54  53  97 W6        29.88F
SOMERSET*      CLOUDY    54  54 100 W5        29.91S
MONTICELLO*    CLOUDY    54  53  97 NW5       29.92F FOG
WILLIAMSBURG*  CLOUDY    54  54 100 CALM      29.89S
MIDDLESBORO*   HVY RAIN  54  54 100 N5        29.87F
HARLAN APT*    CLOUDY    55  51  86 W3        29.86F
PIKE CO APT*   FOG       54  54 100 W6        29.84F VSB 1/2
BIG SANDY APT* HVY RAIN  55  55 100 CALM      29.84F
MOREHEAD APT*  CLOUDY    54  54 100 NW7       29.88F FOG
ASHLAND*       CLOUDY    54  53  97 CALM      29.85F
$$

KYZ035-036-041-042-044-050-067-078-099-250800
...CENTRAL KENTUCKY...

CITY           SKY/WX    TMP DP  RH WIND       PRES   REMARKS
MT STERLING*   CLOUDY    54  52  94 NW5       29.88F
FLEMING/MASON* CLOUDY    53  53 100 NW5       29.88F FOG
DANVILLE*      CLOUDY    52  52 100 N8        29.90F
LEXINGTON      CLOUDY    54  51  90 NW8       29.89F
FRANKFORT      CLOUDY    54  51  90 NW6       29.89S
LOUISVILLE     CLOUDY    56  53  90 NW8       29.91F
LEBANON*       CLOUDY    54  54 100 NW7       29.91F FOG
GLASGOW*       CLOUDY    55  52  92 NW3       29.93S
BOWLING GREEN  CLOUDY    56  54  93 NW5       29.94F
$$

KYZ091>093-OHZ055-061-077-WVZ005-015-034-035-042-250800
...SOUTHERN OHIO/WEST VIRGINIA...

CITY           SKY/WX    TMP DP  RH WIND       PRES   REMARKS
COVINGTON      CLOUDY    53  51  93 NW10      29.89F
COLUMBUS       CLOUDY    53  52  96 CALM      29.87F
DAYTON         FOG       51  51 100 NW8       29.90F VSB 1/2
WILMINGTON     FOG       55  54  96 NW6       29.87F VSB 1/4
HUNTINGTON     CLOUDY    54  52  93 NW7       29.84S FOG
CHARLESTON     FOG       53  53 100 W3        29.82F VSB 1
PINEVILLE*     CLOUDY    53  52  97 MISG      29.87F
BECKLEY        CLOUDY    52  49  89 CALM      29.83F
BLUEFIELD      FOG       49  48  97 N6        29.83F VSB 1/2
LOGAN CO APT*  FOG       54  54 100 CALM      29.82F VSB<1/4
$$

VAZ002-007-008-TNZ017-027-036-066-071-250800
...SOUTHWEST VIRGINIA/EAST TENNESSEE...

CITY           SKY/WX    TMP DP  RH WIND       PRES   REMARKS
WISE*          CLOUDY    52  52 100 NW9       29.86F
JONESVILLE*    CLOUDY    54  54 100 CALM      29.88S
ABINGDON*      RAIN      55  55 100 NW3       29.83F
BRISTOL        CLOUDY    55  55 100 NW6       29.82F
MORRISTOWN*    CLOUDY    55  55 100 CALM      29.85F
SEVIERVILLE*   CLOUDY    57  55  94 CALM      29.86F
KNOXVILLE      CLOUDY    55  55 100 SW3       29.86F
LAFOLLETTE*    PTSUNNY   57  52  82 CALM      29.91S
OAK RIDGE      CLOUDY    57  57 100 CALM      29.88F
CROSSVILLE     CLOUDY    52  50  93 NW6       29.91F
NASHVILLE      MOCLDY    56  52  86 NW6       29.94F
$$

...KEY TO REMARKS...
VSB - VISIBILITY IN MILES
WCI - WIND CHILL INDEX
HX  - HEAT INDEX

$$




USA.gov is the U.S. government's official web portal to all federal, state and local government web resources and services.